Terminal Aerodrome Forecast
Issued by NWS Portland, OR

Home | Current Version | Previous Version | Text Only | Print | Product List | Glossary On
Versions: 1 2 3 4 5 6 7 8 9 10 11 12 13 14 15 16 17 18 19 20 21 22 23 24 25 26 27 28 29 30 31 32 33 34
419
FTUS46 KPQR 151438 AAA
TAFAST
TAF AMD
KAST 151438Z 1515/1612 20007KT 6SM -RA BR SCT060 BKN110
     FM151800 20010KT P6SM -SHRA BKN025 OVC080
     FM152300 21007KT P6SM -SHRA SCT025 BKN060
     FM160300 22008KT P6SM -SHRA VCTS SCT025CB BKN060=

USA.gov is the U.S. government's official web portal to all federal, state and local government web resources and services.